GW3217 Weather Reports


Display with metric or nautical units.
time (UTC)temp
F
wind
direction
speed
MPH
gust
MPH
rain 1hr
in
rain 24hr
in
rain mn
in
humidity
%
barometer
mb
20260508185826 47 240 2.0 3.0 0.00 0.01 0.01 84 1013.7
20260508185323 47 251 2.0 2.0 0.00 0.01 0.01 84 1013.9
20260508184820 47 244 1.0 2.0 0.00 0.01 0.01 84 1014.0
20260508184317 46 288 4.0 7.0 0.05 0.01 0.01 82 1013.7
20260508183814 46 247 3.0 3.0 0.05 0.01 0.01 82 1014.0
20260508183311 48 257 3.0 3.0 0.00 0.00 0.00 77 1013.9
20260508182806 48 226 4.0 4.0 0.00 0.00 0.00 73 1013.6
20260508182306 51 243 2.0 2.0 0.00 0.00 0.00 67 1013.8
20260508181753 52 244 3.0 6.0 0.00 0.00 0.00 59 1013.3
20260508181250 52 258 6.0 7.0 0.00 0.00 0.00 56 1013.0
20260508180747 53 267 4.0 4.0 0.00 0.00 0.00 57 1012.9
20260508180244 54 260 4.0 6.0 0.00 0.00 0.00 55 1012.8
20260508175740 54 248 2.0 2.0 0.00 0.00 0.00 55 1012.8
20260508175237 54 264 3.0 4.0 0.00 0.00 0.00 57 1013.0
20260508174735 54 240 1.0 2.0 0.00 0.00 0.00 59 1013.1
20260508174232 52 244 2.0 2.0 0.00 0.00 0.00 60 1013.1
20260508173728 51 247 2.0 3.0 0.00 0.00 0.00 60 1013.5
20260508173225 52 253 3.0 3.0 0.00 0.00 0.00 60 1013.5
20260508172722 52 242 1.0 2.0 0.00 0.00 0.00 59 1013.4
20260508172219 51 245 2.0 2.0 0.00 0.00 0.00 60 1013.4
20260508171715 51 248 3.0 3.0 0.00 0.00 0.00 59 1013.6
20260508171211 51 253 1.0 2.0 0.00 0.00 0.00 59 1013.4
20260508170708 51 231 3.0 4.0 0.00 0.00 0.00 57 1013.7
20260508170206 51 241 2.0 3.0 0.00 0.00 0.00 57 1013.4
20260508165703 52 266 5.0 6.0 0.00 0.00 0.00 57 1013.3
20260508165200 52 191 3.0 3.0 0.00 0.00 0.00 57 1013.2
20260508164656 51 238 4.0 6.0 0.00 0.00 0.00 55 1013.4
20260508164153 52 263 4.0 6.0 0.00 0.00 0.00 55 1013.4
20260508163651 52 257 3.0 4.0 0.00 0.00 0.00 56 1013.4
20260508163148 53 261 5.0 7.0 0.00 0.00 0.00 55 1013.5
20260508162643 52 263 4.0 4.0 0.00 0.00 0.00 57 1013.4
20260508162141 51 276 5.0 6.0 0.00 0.00 0.00 57 1013.6
20260508161638 51 258 5.0 8.0 0.00 0.00 0.00 54 1013.6
20260508161135 52 248 3.0 3.0 0.00 0.00 0.00 53 1013.7
20260508160633 52 304 7.0 9.0 0.00 0.00 0.00 51 1013.6
20260508160130 53 242 4.0 4.0 0.00 0.00 0.00 53 1013.7
20260508155622 52 252 3.0 4.0 0.00 0.00 0.00 53 1013.5
20260508155119 52 234 3.0 4.0 0.00 0.00 0.00 53 1013.7
20260508154615 53 237 1.0 1.0 0.00 0.00 0.00 50 1013.6
20260508154112 53 252 0.0 0.0 0.00 0.00 0.00 51 1013.5
20260508153609 53 252 2.0 2.0 0.00 0.00 0.00 47 1013.5
20260508153105 53 259 1.0 2.0 0.00 0.00 0.00 51 1013.5
20260508152557 53 235 3.0 3.0 0.00 0.00 0.00 52 1013.6
20260508152052 54 196 0.0 0.0 0.00 0.00 0.00 53 1013.7
20260508151549 53 231 1.0 2.0 0.00 0.00 0.00 54 1013.6
20260508151046 53 239 1.0 1.0 0.00 0.00 0.00 55 1013.5
20260508150543 53 218 2.0 3.0 0.00 0.00 0.00 46 1013.4
20260508150038 52 258 4.0 4.0 0.00 0.00 0.00 51 1013.7
20260508145535 53 235 3.0 3.0 0.00 0.00 0.00 56 1013.8
20260508145031 54 238 1.0 1.0 0.00 0.00 0.00 61 1013.9
20260508144529 52 238 2.0 3.0 0.00 0.00 0.00 60 1013.9
20260508144026 52 265 6.0 7.0 0.00 0.00 0.00 59 1013.9
20260508143519 52 245 2.0 2.0 0.00 0.00 0.00 61 1014.1
20260508143015 52 251 2.0 3.0 0.00 0.00 0.00 62 1013.9
20260508142512 51 264 4.0 6.0 0.00 0.00 0.00 61 1013.8
20260508142008 52 261 2.0 4.0 0.00 0.00 0.00 61 1013.7
20260508141504 52 255 3.0 3.0 0.00 0.00 0.00 61 1013.8
20260508141002 51 247 2.0 2.0 0.00 0.00 0.00 63 1013.8
20260508140459 50 231 1.0 2.0 0.00 0.00 0.00 62 1013.8
20260508135954 50 231 3.0 4.0 0.00 0.00 0.00 59 1013.9
20260508135451 50 258 4.0 4.0 0.00 0.00 0.00 61 1013.8
20260508134948 50 249 2.0 3.0 0.00 0.00 0.00 62 1013.5
20260508134445 50 259 3.0 3.0 0.00 0.00 0.00 62 1013.8
20260508133942 49 277 2.0 3.0 0.00 0.00 0.00 67 1013.8
20260508133439 49 270 3.0 3.0 0.00 0.00 0.00 68 1014.0
20260508132936 49 235 2.0 2.0 0.00 0.00 0.00 67 1013.9
20260508132435 49 248 2.0 2.0 0.00 0.00 0.00 68 1014.0
20260508131931 49 237 2.0 2.0 0.00 0.00 0.00 69 1014.1
20260508131426 49 232 1.0 2.0 0.00 0.00 0.00 69 1013.9
20260508130923 49 266 2.0 3.0 0.00 0.00 0.00 69 1014.0
20260508130420 49 248 1.0 1.0 0.00 0.00 0.00 70 1014.0
20260508125916 49 232 0.0 0.0 0.00 0.00 0.00 72 1013.9
20260508125412 49 255 0.0 0.0 0.00 0.00 0.00 72 1014.0
20260508124910 48 229 0.0 0.0 0.00 0.00 0.00 71 1014.2
20260508124408 48 244 1.0 2.0 0.00 0.00 0.00 73 1014.3
20260508123905 47 260 3.0 3.0 0.00 0.00 0.00 74 1014.3
20260508123404 47 224 4.0 6.0 0.00 0.00 0.00 74 1014.3
20260508122859 47 261 2.0 3.0 0.00 0.00 0.00 76 1014.3
20260508122357 46 246 1.0 1.0 0.00 0.00 0.00 76 1014.3
20260508121854 46 250 2.0 2.0 0.00 0.00 0.00 76 1014.1
20260508121352 46 245 2.0 2.0 0.00 0.00 0.00 77 1014.2
20260508120849 45 235 2.0 3.0 0.00 0.00 0.00 77 1014.1
20260508120347 45 250 4.0 6.0 0.00 0.00 0.00 77 1014.3
20260508115844 45 263 2.0 3.0 0.00 0.00 0.00 78 1014.1
20260508115342 44 233 2.0 2.0 0.00 0.00 0.00 79 1014.2
20260508114838 44 244 1.0 2.0 0.00 0.00 0.00 80 1014.3
20260508114335 44 244 1.0 1.0 0.00 0.00 0.00 82 1014.2
20260508113831 43 248 0.0 0.0 0.00 0.00 0.00 83 1013.9
20260508113329 43 247 0.0 0.0 0.00 0.00 0.00 86 1013.8
20260508112825 42 250 0.0 1.0 0.00 0.00 0.00 85 1013.9
20260508112323 42 239 0.0 0.0 0.00 0.00 0.00 87 1014.2
20260508111819 42 243 0.0 0.0 0.00 0.00 0.00 87 1013.8
20260508111317 41 235 0.0 0.0 0.00 0.00 0.00 88 1013.8
20260508110814 41 235 0.0 0.0 0.00 0.00 0.00 88 1013.8
20260508110312 41 251 2.0 2.0 0.00 0.00 0.00 89 1013.7
20260508105811 41 258 1.0 1.0 0.00 0.00 0.00 89 1013.9
20260508105308 41 251 2.0 2.0 0.00 0.00 0.00 89 1014.1
20260508104805 41 246 0.0 0.0 0.00 0.00 0.00 89 1013.7
20260508104302 40 249 0.0 0.0 0.00 0.00 0.00 90 1013.8
20260508103759 40 251 1.0 1.0 0.00 0.00 0.00 90 1013.8
20260508103256 40 246 0.0 0.0 0.00 0.00 0.00 90 1013.7
20260508102754 40 245 0.0 0.0 0.00 0.00 0.00 90 1013.3
20260508102252 40 244 0.0 0.0 0.00 0.00 0.00 91 1013.7
20260508101749 40 244 0.0 0.0 0.00 0.00 0.00 90 1013.5
20260508101246 40 247 0.0 0.0 0.00 0.00 0.00 90 1013.5
20260508100744 40 245 0.0 0.0 0.00 0.00 0.00 89 1013.2
20260508100241 40 252 0.0 0.0 0.00 0.00 0.00 89 1013.3
20260508095737 40 243 0.0 0.0 0.00 0.00 0.00 90 1013.4
20260508095235 40 245 0.0 0.0 0.00 0.00 0.00 90 1013.4
20260508094732 40 256 1.0 1.0 0.00 0.00 0.00 90 1013.3
20260508094229 40 246 0.0 0.0 0.00 0.00 0.00 91 1013.2
20260508093726 40 245 0.0 0.0 0.00 0.00 0.00 91 1013.3
20260508093224 40 247 0.0 0.0 0.00 0.00 0.00 91 1013.0
20260508092720 40 245 0.0 0.0 0.00 0.00 0.00 92 1013.1
20260508092219 40 243 0.0 0.0 0.00 0.00 0.00 93 1013.0
20260508091716 40 248 0.0 1.0 0.00 0.00 0.00 94 1013.1
20260508091213 41 247 0.0 0.0 0.00 0.00 0.00 94 1013.0
20260508090711 41 250 0.0 0.0 0.00 0.00 0.00 94 1013.0
20260508090208 41 243 0.0 0.0 0.00 0.00 0.00 93 1012.8
20260508085703 41 243 0.0 0.0 0.00 0.00 0.00 93 1012.9
20260508085200 41 243 0.0 0.0 0.00 0.00 0.00 92 1012.9
20260508084651 41 243 0.0 0.0 0.00 0.00 0.00 92 1013.1
20260508084149 41 242 0.0 0.0 0.00 0.00 0.00 91 1013.1
20260508083646 41 242 0.0 0.0 0.00 0.00 0.00 90 1013.0
20260508083143 42 242 0.0 0.0 0.00 0.00 0.00 89 1013.1
20260508082638 42 242 0.0 0.0 0.00 0.00 0.00 89 1013.2
20260508082136 42 242 0.0 0.0 0.00 0.00 0.00 88 1013.2
20260508081633 42 248 0.0 0.0 0.00 0.00 0.00 88 1013.2
20260508081130 42 247 0.0 0.0 0.00 0.00 0.00 87 1013.2
20260508080627 42 245 0.0 0.0 0.00 0.00 0.00 86 1013.1
20260508080125 42 248 0.0 0.0 0.00 0.00 0.00 86 1013.2
20260508075621 42 242 0.0 0.0 0.00 0.00 0.00 86 1013.3
20260508075118 42 247 0.0 0.0 0.00 0.00 0.00 87 1013.0
20260508074616 42 250 0.0 0.0 0.00 0.00 0.00 88 1013.2
20260508074113 42 247 0.0 0.0 0.00 0.00 0.00 87 1013.1
20260508073610 43 248 0.0 0.0 0.00 0.00 0.00 86 1013.2
20260508073108 43 247 0.0 0.0 0.00 0.00 0.00 85 1013.2
20260508072602 43 257 0.0 0.0 0.00 0.00 0.00 85 1013.0
20260508072100 43 252 0.0 0.0 0.00 0.00 0.00 83 1012.9
20260508071558 43 240 0.0 0.0 0.00 0.00 0.00 83 1013.0
20260508071056 43 206 0.0 0.0 0.00 0.00 0.00 82 1012.9
20260508070553 43 187 0.0 0.0 0.00 0.00 0.00 81 1013.1
20260508070051 43 234 0.0 0.0 0.00 0.00 0.00 79 1013.0
20260508065548 43 248 0.0 0.0 0.00 0.00 0.00 78 1013.4
20260508065046 44 249 1.0 2.0 0.00 0.00 0.00 77 1013.0
20260508064543 44 242 0.0 1.0 0.00 0.00 0.00 77 1013.1
20260508064041 44 261 1.0 2.0 0.00 0.00 0.00 76 1013.1
20260508063538 44 262 4.0 4.0 0.00 0.00 0.00 74 1013.1
20260508063037 44 230 1.0 2.0 0.00 0.00 0.00 73 1013.1
20260508062534 45 250 0.0 0.0 0.00 0.00 0.00 73 1013.2
20260508062030 44 248 4.0 4.0 0.00 0.00 0.00 71 1013.0
20260508061528 45 239 1.0 2.0 0.00 0.00 0.00 72 1012.9
20260508061025 45 247 2.0 3.0 0.00 0.00 0.00 70 1012.9
20260508060521 44 238 2.0 2.0 0.00 0.00 0.00 71 1012.9
20260508060019 44 243 0.0 0.0 0.00 0.00 0.00 76 1012.6
20260508055515 44 216 0.0 0.0 0.00 0.00 0.00 73 1012.5
20260508055012 44 258 0.0 0.0 0.00 0.00 0.00 73 1012.3
20260508054508 45 209 1.0 1.0 0.00 0.00 0.00 73 1012.2
20260508054005 44 244 1.0 1.0 0.00 0.00 0.00 74 1012.2
20260508053502 45 223 0.0 0.0 0.00 0.00 0.00 75 1012.0
20260508053000 46 239 1.0 1.0 0.00 0.00 0.00 71 1012.0
20260508052457 46 246 2.0 2.0 0.00 0.00 0.00 60 1012.3
20260508051954 46 205 0.0 0.0 0.00 0.00 0.00 59 1012.3
20260508051449 46 233 0.0 0.0 0.00 0.00 0.00 57 1012.3
20260508050945 46 195 0.0 0.0 0.00 0.00 0.00 57 1012.0
20260508050442 46 215 0.0 0.0 0.00 0.00 0.00 57 1012.2
20260508045939 45 352 1.0 2.0 0.00 0.00 0.00 55 1012.1
20260508045436 45 211 0.0 0.0 0.00 0.00 0.00 58 1012.0
20260508044933 45 230 0.0 0.0 0.00 0.00 0.00 57 1012.1
20260508044431 46 219 0.0 0.0 0.00 0.00 0.00 56 1011.9
20260508043925 46 230 0.0 0.0 0.00 0.00 0.00 54 1011.8
20260508043423 46 244 0.0 0.0 0.00 0.00 0.00 54 1011.6
20260508042919 46 359 1.0 1.0 0.00 0.00 0.00 53 1011.6
20260508042418 46 328 2.0 3.0 0.00 0.00 0.00 53 1011.4
20260508041914 46 299 0.0 0.0 0.00 0.00 0.00 54 1011.8
20260508041410 46 209 0.0 0.0 0.00 0.00 0.00 55 1011.9
20260508040907 46 156 0.0 0.0 0.00 0.00 0.00 56 1011.7
20260508040404 46 191 0.0 0.0 0.00 0.00 0.00 56 1012.0
20260508035902 46 154 1.0 1.0 0.00 0.12 0.12 55 1011.8
20260508035354 46 133 0.0 0.0 0.00 0.12 0.12 56 1011.8
20260508034850 46 204 0.0 1.0 0.00 0.12 0.12 57 1012.2
20260508034348 46 314 0.0 1.0 0.00 0.12 0.12 58 1011.9
20260508033845 46 200 0.0 0.0 0.00 0.12 0.12 60 1012.2
20260508033343 46 314 0.0 0.0 0.00 0.12 0.12 61 1012.2
20260508032840 46 166 0.0 0.0 0.00 0.12 0.12 61 1012.0
20260508032337 45 221 0.0 0.0 0.00 0.12 0.12 61 1012.0
20260508031834 45 261 0.0 0.0 0.00 0.12 0.12 61 1011.8
20260508031331 46 222 0.0 0.0 0.00 0.12 0.12 62 1012.2
20260508030827 46 126 0.0 0.0 0.00 0.12 0.12 62 1012.0
20260508030324 47 196 0.0 0.0 0.00 0.12 0.12 59 1012.1
20260508025820 46 194 0.0 0.0 0.00 0.12 0.12 58 1011.8
20260508025317 47 40 0.0 0.0 0.00 0.12 0.12 60 1012.0
20260508024814 47 195 0.0 0.0 0.00 0.12 0.12 58 1012.1
20260508024310 47 19 0.0 0.0 0.00 0.12 0.12 60 1012.1
20260508023808 47 185 0.0 0.0 0.00 0.12 0.12 59 1012.2
20260508023304 47 195 0.0 0.0 0.00 0.12 0.12 58 1012.0
20260508022800 47 205 0.0 0.0 0.00 0.12 0.12 60 1012.4
20260508022257 47 219 0.0 0.0 0.00 0.12 0.12 58 1012.0
20260508021754 47 216 0.0 0.0 0.00 0.12 0.12 57 1012.2
20260508021249 47 285 0.0 0.0 0.00 0.12 0.12 59 1012.1
20260508020746 47 220 0.0 0.0 0.00 0.12 0.12 59 1011.9
20260508020244 47 191 0.0 0.0 0.00 0.12 0.12 60 1011.9
20260508015741 47 222 0.0 0.0 0.00 0.12 0.12 59 1011.9
20260508015238 47 285 0.0 0.0 0.00 0.12 0.12 55 1012.0
20260508014735 46 187 0.0 0.0 0.00 0.12 0.12 59 1012.1
20260508014232 47 209 0.0 0.0 0.00 0.12 0.12 62 1011.8
20260508013727 46 156 0.0 0.0 0.00 0.12 0.12 60 1011.7
20260508013224 47 195 0.0 0.0 0.00 0.12 0.12 62 1011.8
20260508012722 46 126 0.0 0.0 0.00 0.12 0.12 62 1011.6
20260508012218 46 197 0.0 0.0 0.00 0.12 0.12 63 1011.6
20260508011717 46 193 0.0 0.0 0.00 0.12 0.12 63 1011.6
20260508011214 47 193 0.0 0.0 0.00 0.12 0.12 61 1011.8
20260508010710 47 179 0.0 0.0 0.00 0.12 0.12 59 1011.5
20260508010208 47 202 0.0 0.0 0.00 0.12 0.12 60 1011.6
20260508005705 47 197 0.0 0.0 0.00 0.12 0.12 59 1011.5
20260508005202 48 177 0.0 0.0 0.00 0.12 0.12 59 1011.3
20260508004657 48 174 0.0 0.0 0.00 0.12 0.12 59 1011.5
20260508004154 48 197 0.0 0.0 0.00 0.12 0.12 59 1011.1
20260508003651 48 192 0.0 0.0 0.00 0.12 0.12 58 1011.0
20260508003149 49 186 0.0 0.0 0.00 0.12 0.12 56 1010.9
20260508002645 49 173 0.0 0.0 0.00 0.12 0.12 55 1011.0
20260508002143 50 145 0.0 0.0 0.00 0.12 0.12 54 1010.9
20260508001638 50 216 0.0 0.0 0.00 0.12 0.12 54 1010.7
20260508001134 50 172 0.0 0.0 0.00 0.12 0.12 53 1010.4
20260508000630 51 192 0.0 0.0 0.00 0.12 0.12 55 1010.4
20260508000128 51 203 0.0 0.0 0.00 0.12 0.12 52 1010.6
20260507235624 52 155 0.0 0.0 0.00 0.12 0.12 50 1010.6
20260507235116 52 224 0.0 0.0 0.00 0.12 0.12 48 1010.9
20260507234612 53 234 0.0 0.0 0.00 0.12 0.12 49 1010.5
20260507234109 53 232 0.0 0.0 0.00 0.12 0.12 48 1010.6
20260507233606 53 241 0.0 0.0 0.00 0.12 0.12 50 1010.6
20260507233105 54 22 0.0 2.0 0.00 0.12 0.12 46 1010.5
20260507232600 54 219 0.0 0.0 0.00 0.12 0.12 49 1010.3
20260507232058 54 244 0.0 0.0 0.00 0.12 0.12 47 1010.2
20260507231554 55 224 0.0 0.0 0.00 0.12 0.12 45 1010.4
20260507231051 55 264 0.0 0.0 0.00 0.12 0.12 45 1010.2
20260507230548 55 238 0.0 0.0 0.00 0.12 0.12 44 1010.3
20260507230044 56 325 2.0 3.0 0.00 0.12 0.12 45 1010.2
20260507225539 56 319 0.0 1.0 0.00 0.12 0.12 45 1010.2
20260507225036 56 273 2.0 3.0 0.00 0.12 0.12 43 1010.1
20260507224532 55 242 0.0 0.0 0.00 0.12 0.12 46 1010.3
20260507224029 55 230 0.0 0.0 0.00 0.12 0.12 45 1010.2
20260507223525 55 186 0.0 1.0 0.00 0.12 0.12 44 1010.2
20260507223022 55 185 1.0 1.0 0.00 0.12 0.12 44 1010.4
20260507222519 55 238 0.0 1.0 0.00 0.12 0.12 44 1010.3
20260507222015 55 270 3.0 3.0 0.00 0.12 0.12 44 1010.4
20260507221512 56 188 2.0 3.0 0.00 0.12 0.12 42 1010.3
20260507221009 56 275 2.0 2.0 0.00 0.12 0.12 44 1010.2
20260507220506 57 275 2.0 2.0 0.00 0.12 0.12 40 1010.4
20260507220003 56 266 2.0 3.0 0.00 0.12 0.12 43 1010.3
20260507215459 56 246 2.0 2.0 0.00 0.12 0.12 46 1010.4
20260507214957 56 241 0.0 1.0 0.00 0.12 0.12 44 1010.3
20260507214454 56 229 2.0 2.0 0.00 0.12 0.12 42 1010.1
20260507213949 56 238 0.0 1.0 0.00 0.12 0.12 47 1010.2
20260507213447 56 183 3.0 3.0 0.00 0.12 0.12 42 1010.2
20260507212943 57 239 1.0 1.0 0.00 0.12 0.12 44 1010.2
20260507212439 57 229 0.0 1.0 0.00 0.12 0.12 43 1009.9
20260507211936 57 245 0.0 1.0 0.00 0.12 0.12 42 1009.7
20260507211432 57 235 3.0 3.0 0.00 0.12 0.12 44 1010.1
20260507210929 57 250 3.0 3.0 0.00 0.12 0.12 42 1009.9
20260507210421 58 268 2.0 2.0 0.00 0.12 0.12 42 1009.8
20260507205917 58 243 3.0 3.0 0.00 0.12 0.12 42 1009.8
20260507205415 59 248 2.0 3.0 0.00 0.12 0.12 45 1009.8
20260507204910 59 245 3.0 4.0 0.00 0.12 0.12 41 1009.9
20260507204407 58 308 3.0 4.0 0.00 0.12 0.12 41 1009.8
20260507203905 59 1 1.0 2.0 0.00 0.12 0.12 43 1009.9
20260507203403 59 153 3.0 4.0 0.00 0.12 0.12 40 1009.8
20260507202858 57 278 2.0 3.0 0.00 0.12 0.12 43 1009.7
20260507202355 57 247 2.0 2.0 0.00 0.12 0.12 46 1009.7
20260507201850 59 264 4.0 6.0 0.00 0.12 0.12 41 1009.7
20260507201346 58 250 3.0 3.0 0.00 0.12 0.12 40 1009.8
20260507200843 58 229 0.0 1.0 0.00 0.12 0.12 39 1009.7
20260507200339 59 237 3.0 4.0 0.00 0.12 0.12 42 1009.8
20260507195835 59 170 3.0 3.0 0.00 0.12 0.12 42 1009.8
20260507195332 58 207 4.0 7.0 0.00 0.12 0.12 41 1009.8
20260507194830 56 243 3.0 3.0 0.00 0.12 0.12 44 1009.6
20260507194326 57 269 2.0 2.0 0.00 0.12 0.12 44 1010.1
20260507193823 57 270 2.0 3.0 0.00 0.12 0.12 45 1010.1
20260507193320 56 240 1.0 1.0 0.00 0.12 0.12 45 1010.2
20260507192815 57 357 3.0 4.0 0.00 0.12 0.12 42 1010.2
20260507192312 59 245 0.0 0.0 0.00 0.12 0.12 44 1010.1
20260507191809 59 253 2.0 2.0 0.00 0.12 0.12 46 1010.2
20260507191305 58 219 2.0 2.0 0.00 0.12 0.12 43 1010.3
20260507190802 59 186 2.0 3.0 0.00 0.12 0.12 40 1010.4
20260507190301 58 78 4.0 6.0 0.00 0.12 0.12 42 1010.6